Location: Mountain Grove
(34.0887°N, 86.6172°W)
Time: 21:51:49
(UTC+00:00)

BREEZE-M DEB (TANK) - Pass Details

Date: 14 July 2020
Orbit: 309 x 15750 km, 49.4° (Epoch: 07 August)

Event Time Altitude Azimuth Distance (km) Brightness Sun altitude
Rises 03:22:51 0° 308° (NW) 5,330 8.6 -23.9°
Reaches altitude 10° 03:28:05 10° 316° (NW) 2,907 7.0 -24.6°
Maximum altitude 03:33:03 32° 20° (NNE) 901 3.6 -25.2°
Enters shadow 03:33:07 32° 23° (NNE) 891 3.6 -25.2°
